Location: Newark
(41.9364°N, 2.8061°E)
Time: 13:21:51
(UTC+00:00)

A-11 Canister half - Pass Details

Date: 21 February 2020
Orbit: 1516 x 1683 km, 47.2° (Epoch: 08 April)

Event Time Altitude Azimuth Distance (km) Brightness Sun altitude
Rises 22:23:00 0° 297° (WNW) 4,793 12.1 -51.8°
Reaches altitude 10° 22:26:13 10° 293° (WNW) 3,783 11.4 -52.2°
Enters shadow 22:29:34 24° 284° (WNW) 2,800 10.5 -52.6°
